Zhongxing 22A

operational
NORAD ID: 29398 Int'l Des: 2006-038 Owner: ZZB Country: CN
HEOCIRCULAR

About Zhongxing 22A

Description loading...

Live Position

Loading 3D Globe...

Upcoming Passes

Altitude History

Altitude vs Time

uPlot chart will show altitude changes over time

Two-Line Element Set

1 29398U 06038A 26062.06919661 -.00000017 00000-0 00000+0 0 9990
2 29398 11.3029 38.2278 0001478 250.2236 141.4567 1.00069021 71329
Epoch: Mar 3, 2026 • Age: 16 hours

Current Status

Altitude 35839.0 km
Velocity 3.07 km/s
Sub-Earth Point -10.84°S, 116.59°W
Launch Date Sep 12, 2006
Age 19.4 years
Type other

Technical Details

Classification Payload
Mass 2330.00 kg
Dry Mass 1100.00 kg
Total Mass 2330.00 kg
Length 5.70 m
Diameter 1.70 m
Span 18.10 m
Shape Box + 2 Pan
Manufacturer CAST
Bus Type DFH-3
Phase Status In Orbit
Owner/State ZZB/CN

Large Constellations

Loading constellations...